Regional Weather Roundup
Issued by NWS

Home | Current Version | Previous Version | Graphics & Text | Print | Product List | Glossary On
Versions: 1 2 3 4 5 6 7 8 9 10 11 12 13 14 15 16 17 18 19 20 21 22 23 24 25 26 27 28 29 30 31 32 33 34 35 36 37 38 39 40 41 42 43 44 45 46 47 48 49 50
000
ASUS43 KTOP 241808
RWRKS

WEATHER ROUNDUP FOR KANSAS
NATIONAL WEATHER SERVICE GOODLAND KS
100 PM CDT SUN SEP 24 2017

NOTE:  "FAIR" INDICATES FEW OR NO CLOUDS BELOW 12,000 FEET WITH NO
SIGNIFICANT WEATHER AND/OR OBSTRUCTIONS TO VISIBILITY.

KSZ001>006-013>018-027>032-041>047-241900-
NORTHWEST KANSAS

CITY           SKY/WX    TMP DP  RH WIND       PRES   REMARKS
GOODLAND       LGT RAIN  52  51  97 N9        29.98F
6HR MIN TEMP:  49; 6HR MAX TEMP:  52; 6HR PCP:  0.09;

HAYS           LGT RAIN  65  64  97 CALM      29.94F FOG
HILL CITY      CLOUDY    61  60  97 NW8       29.96F
6HR MIN TEMP:  61; 6HR MAX TEMP:  66; 6HR PCP:  0.20;

RUSSELL        CLOUDY    73  61  65 W6        29.92S
6HR MIN TEMP:  70; 6HR MAX TEMP:  77;

$$

KSZ061>065-074>080-084>089-241900-
SOUTHWEST KANSAS

CITY           SKY/WX    TMP DP  RH WIND       PRES   REMARKS
DODGE CITY     PTSUNNY   69  64  84 SE12      29.94S
6HR MIN TEMP:  61; 6HR MAX TEMP:  69; 6HR PCP:  0.42;

ELKHART          N/A     68  66  93 SE15        N/A
GARDEN CITY    CLOUDY    66  63  90 SE15      29.92F
6HR MIN TEMP:  60; 6HR MAX TEMP:  66; 6HR PCP:  0.19;

GREAT BEND     CLOUDY    74  62  66 SW5       29.93F
LIBERAL        CLOUDY    69  66  90 SE12G18   29.92F
PRATT          CLOUDY    82  62  51 S17G23    29.92F
6HR MIN TEMP:  69; 6HR MAX TEMP:  82;

$$

KSZ066>073-081>083-090>101-241900-
SOUTHEAST KANSAS

CITY           SKY/WX    TMP DP  RH WIND       PRES   REMARKS
CHANUTE        MOSUNNY   86  68  54 S13       29.97F
6HR MIN TEMP:  67; 6HR MAX TEMP:  87;

COFFEYVILLE    MOSUNNY   88  69  53 S13       29.95F
6HR MIN TEMP:  68; 6HR MAX TEMP:  88;

HUTCHINSON     MOSUNNY   87  63  44 SW18G28   29.92F
6HR MIN TEMP:  69; 6HR MAX TEMP:  89;

MEDICINE LODGE   N/A     83  63  50 S16G24    29.89F
NEWTON         MOSUNNY   86  64  47 S20G28    29.94F
PARSONS        MOSUNNY   87  68  52 VRB7      29.98F
6HR MIN TEMP:  66; 6HR MAX TEMP:  87; 6HR PCP: TRACE;

WICHITA INTL   PTSUNNY   86  65  49 S15G28    29.92F
6HR MIN TEMP:  70; 6HR MAX TEMP:  88;

WICHITA JABRA  MOSUNNY   87  66  49 S21G31    29.93F
6HR MIN TEMP:  69; 6HR MAX TEMP:  87;

WICHITA MCCONL MOSUNNY   88  64  43 S20       29.93F
WINFIELD       MOSUNNY   87  67  51 S12G24    29.95F
6HR MIN TEMP:  69; 6HR MAX TEMP:  88;

$$

KSZ007>012-019>026-033>040-048>060-102>105-241900-
NORTHEAST KANSAS

CITY           SKY/WX    TMP DP  RH WIND       PRES   REMARKS
CONCORDIA      MOSUNNY   84  65  52 S21G28    29.91F
6HR MIN TEMP:  70; 6HR MAX TEMP:  84;

EMPORIA        PTSUNNY   84  67  56 S15       29.95F
6HR MIN TEMP:  68; 6HR MAX TEMP:  85;

LAWRENCE       SUNNY     88  69  53 S14       29.96F
6HR MIN TEMP:  67; 6HR MAX TEMP:  88;

MANHATTAN      MOSUNNY   91  66  43 SW18G29   29.92F
6HR MIN TEMP:  72; 6HR MAX TEMP:  91;

MARYSVILLE     MOSUNNY   90  64  43 S15G22    29.93S
OLATHE IND     MOSUNNY   85  68  56 S10       29.98F
6HR MIN TEMP:  70; 6HR MAX TEMP:  86;

OLATHE EXE     MOSUNNY   84  69  60 S8        29.98F
6HR MIN TEMP:  67; 6HR MAX TEMP:  85;

SALINA         MOSUNNY   91  61  36 S23       29.91F
6HR MIN TEMP:  72; 6HR MAX TEMP:  91;

TOPEKA BILLARD MOSUNNY   87  69  54 S7G20     29.95F
6HR MIN TEMP:  67; 6HR MAX TEMP:  88;

TOPEKA FORBES  MOSUNNY   89  69  51 S13       29.96S
6HR MIN TEMP:  68; 6HR MAX TEMP:  89;

$$




USA.gov is the U.S. government's official web portal to all federal, state and local government web resources and services.